Weather reports worldwide

Advertisment
Torino/Caselle, Italy (16059): temperature & dewpoint: 14.06.2019 14:00:00 - 20.06.2019 14:00:00 (CEST)Torino/Caselle, Italy (16059): wind speed: 14.06.2019 14:00:00 - 20.06.2019 14:00:00 (CEST)Torino/Caselle, Italy (16059): wind direction: 14.06.2019 14:00:00 - 20.06.2019 14:00:00 (CEST)Torino/Caselle, Italy (16059): reduced air pressure: 14.06.2019 14:00:00 - 20.06.2019 14:00:00 (CEST)Torino/Caselle, Italy (16059): visibility: 14.06.2019 14:00:00 - 20.06.2019 14:00:00 (CEST)Torino/Caselle, Italy (16059): precipitation: 14.06.2019 14:00:00 - 20.06.2019 14:00:00 (CEST)
Date & Time tt [°C] td [°C] ff [km/h] ff [kn] dd ppp [hPa] vv [km] rr [mm]
20.06.2019 14:00:00 26,5 18,1 11 6 NE 1012,8 10 -
20.06.2019 13:00:00 26,0 15,0 9 5 ENE - 10 -
20.06.2019 12:00:00 25,0 16,0 9 5 - - 10 -
20.06.2019 11:00:00 24,7 15,6 8 4 ENE 1013,0 10 0,0
20.06.2019 10:00:00 23,0 16,0 4 2 - - 10 -
20.06.2019 09:00:00 22,0 16,0 5 3 ESE - 10 -
20.06.2019 08:00:00 21,4 16,2 8 4 N 1013,3 10 -
20.06.2019 07:00:00 20,0 15,0 2 1 - - 10 -
20.06.2019 06:00:00 19,0 16,0 2 1 - - 10 -
20.06.2019 05:00:00 19,2 15,8 2 1 - 1012,8 10 0,0
20.06.2019 04:00:00 19,0 17,0 4 2 E - 10 -
20.06.2019 03:00:00 21,0 16,0 4 2 - - 10 -
20.06.2019 02:00:00 20,8 15,8 2 1 - 1013,0 10 -
20.06.2019 01:00:00 22,0 16,0 4 2 NNW - 10 -
20.06.2019 00:00:00 22,0 16,0 11 6 N - 10 -
19.06.2019 23:00:00 21,6 16,0 5 3 ENE 1012,9 10 0,0
19.06.2019 22:00:00 23,0 16,0 4 2 - - 10 -
19.06.2019 21:00:00 25,0 17,0 8 4 NNE - 10 -
19.06.2019 20:00:00 26,1 16,4 13 7 NNE 1011,9 10 -
19.06.2019 19:00:00 28,0 16,0 13 7 NE - 10 -
19.06.2019 18:00:00 29,0 17,0 15 8 ENE - 10 -
19.06.2019 17:00:00 29,2 14,8 9 5 ENE 1012,3 10 0,0
19.06.2019 16:00:00 30,0 16,0 11 6 E - 10 -
19.06.2019 15:00:00 29,0 14,0 8 4 NE - 10 -
19.06.2019 14:00:00 28,7 14,0 8 4 - 1013,6 10 -
19.06.2019 13:00:00 28,0 15,0 5 3 ENE - 10 -
19.06.2019 12:00:00 27,0 13,0 9 5 ESE - 10 -
19.06.2019 11:00:00 26,2 14,2 8 4 S 1014,4 10 0,0
19.06.2019 10:00:00 24,0 16,0 4 2 - - 10 -
19.06.2019 09:00:00 22,0 16,0 2 1 - - 10 -
19.06.2019 08:00:00 20,7 15,5 4 2 - 1014,6 10 -
19.06.2019 07:00:00 20,0 15,0 5 3 WSW - 10 -
19.06.2019 06:00:00 19,0 15,0 2 1 - - 10 -
19.06.2019 05:00:00 20,2 14,8 4 2 W 1014,9 10 0,0
19.06.2019 04:00:00 20,0 15,0 8 4 W - 10 -
19.06.2019 03:00:00 20,0 15,0 8 4 SW - 10 -
19.06.2019 02:00:00 20,2 15,0 5 3 W 1015,2 10 -
19.06.2019 01:00:00 21,0 15,0 5 3 SSW - 10 -
19.06.2019 00:00:00 21,0 15,0 8 4 NE - 10 -
18.06.2019 23:00:00 23,3 13,5 16 9 N 1014,8 10 0,0
18.06.2019 22:00:00 25,0 18,0 9 5 N - 10 -
18.06.2019 21:00:00 27,0 14,0 4 2 - - 10 -
18.06.2019 20:00:00 27,1 17,4 5 3 NE 1014,5 10 -
18.06.2019 19:00:00 28,0 18,0 5 3 NE - 10 -
18.06.2019 18:00:00 29,0 16,0 8 4 SE - 10 -
18.06.2019 17:00:00 28,5 17,7 8 4 ENE 1014,7 10 0,0
18.06.2019 16:00:00 28,0 16,0 4 2 - - 10 -
18.06.2019 15:00:00 28,0 16,0 5 3 SSW - 10 -
18.06.2019 14:00:00 27,3 16,6 9 5 NE 1016,3 10 -
18.06.2019 13:00:00 26,0 17,0 9 5 E - 10 -
18.06.2019 12:00:00 26,0 16,0 8 4 ENE - 10 -
18.06.2019 11:00:00 25,2 15,5 9 5 ESE 1017,5 10 0,0
18.06.2019 10:00:00 25,0 16,0 5 3 - - 10 -
18.06.2019 09:00:00 23,0 16,0 4 2 - - 10 -
18.06.2019 08:00:00 20,5 16,3 2 1 - 1017,6 10 -
18.06.2019 07:00:00 19,0 14,0 2 1 - - 10 -
18.06.2019 06:00:00 19,0 14,0 9 5 NNW - 10 -
18.06.2019 05:00:00 17,6 15,1 5 3 NNE 1016,7 10 0,0
18.06.2019 04:00:00 19,0 15,0 4 2 SSW - 10 -
18.06.2019 03:00:00 20,0 15,0 4 2 WSW - 10 -
18.06.2019 02:00:00 19,6 15,4 4 2 - 1016,9 10 -
18.06.2019 01:00:00 22,0 15,0 11 6 NW - 10 -
18.06.2019 00:00:00 23,0 15,0 11 6 NW - 10 -
17.06.2019 23:00:00 23,3 15,2 9 5 NW 1016,3 10 0,0
17.06.2019 22:00:00 24,0 16,0 9 5 NNW - 10 -
17.06.2019 21:00:00 26,0 15,0 4 2 NE - 10 -
17.06.2019 20:00:00 26,8 13,8 5 3 ENE 1015,5 10 -
17.06.2019 19:00:00 28,0 13,0 4 2 - - 10 -
17.06.2019 18:00:00 28,0 15,0 8 4 E - 10 -
17.06.2019 17:00:00 28,2 14,8 9 5 ENE 1016,1 10 0,0
17.06.2019 16:00:00 28,0 16,0 11 6 NE - 10 -
17.06.2019 15:00:00 28,0 17,0 11 6 NE - 10 -
17.06.2019 14:00:00 27,3 16,4 11 6 NE 1017,7 10 -
17.06.2019 13:00:00 27,0 16,0 11 6 ENE - 10 -
17.06.2019 12:00:00 26,0 14,0 11 6 NE - 10 -
17.06.2019 11:00:00 25,4 13,3 9 5 NE 1018,1 10 0,0
17.06.2019 10:00:00 24,0 14,0 15 8 E - 10 -
17.06.2019 09:00:00 22,0 14,0 9 5 ENE - 10 -
17.06.2019 08:00:00 20,4 12,8 4 2 - 1016,7 20 -
17.06.2019 07:00:00 19,0 12,0 5 3 W - 10 -
17.06.2019 06:00:00 19,0 11,0 13 7 WNW - 10 -
17.06.2019 05:00:00 19,4 11,5 9 5 NW 1016,1 10 0,0
17.06.2019 04:00:00 20,0 12,0 13 7 WNW - 10 -
17.06.2019 03:00:00 19,0 13,0 9 5 N - 10 -
17.06.2019 02:00:00 18,2 14,0 8 4 N 1015,3 10 -
17.06.2019 01:00:00 19,0 14,0 2 1 - - 10 -
17.06.2019 00:00:00 22,0 13,0 4 2 - - 10 -
16.06.2019 23:00:00 22,6 13,2 11 6 NW 1014,9 10 0,0
16.06.2019 22:00:00 24,0 14,0 11 6 WNW - 10 -
16.06.2019 21:00:00 27,0 12,0 5 3 N - 10 -
16.06.2019 20:00:00 27,5 12,8 5 3 NNE 1014,5 10 -
16.06.2019 19:00:00 28,0 11,0 5 3 ENE - 10 -
16.06.2019 18:00:00 28,0 11,0 8 4 ENE - 10 -
16.06.2019 17:00:00 28,3 11,0 11 6 ENE 1014,7 10 0,0
16.06.2019 16:00:00 28,0 10,0 8 4 NE - 10 -
16.06.2019 15:00:00 28,0 10,0 8 4 NE - 10 -
16.06.2019 14:00:00 27,3 11,1 5 3 - 1015,6 10 -
16.06.2019 13:00:00 26,0 12,0 8 4 E - 10 -
16.06.2019 12:00:00 25,0 13,0 5 3 ENE - 10 -
16.06.2019 11:00:00 24,0 13,3 4 2 - 1016,3 10 0,0
16.06.2019 10:00:00 21,0 14,0 4 2 - - 10 -
16.06.2019 09:00:00 19,0 13,0 5 3 SW - 10 -
16.06.2019 08:00:00 17,5 11,5 5 3 W 1016,0 10 -
16.06.2019 07:00:00 16,0 11,0 8 4 WNW - 10 -
16.06.2019 06:00:00 15,0 11,0 5 3 W - 10 -
16.06.2019 05:00:00 14,3 12,9 5 3 N 1015,1 10 0,0
16.06.2019 04:00:00 16,0 13,0 4 2 - - 10 -
16.06.2019 03:00:00 16,0 15,0 5 3 NW - 10 -
16.06.2019 02:00:00 15,7 14,2 9 5 N 1015,6 10 -
16.06.2019 01:00:00 17,0 15,0 5 3 SW - 10 -
16.06.2019 00:00:00 17,0 16,0 5 3 SW - 10 -
15.06.2019 23:00:00 18,0 15,6 4 2 - 1015,3 10 0,0
15.06.2019 22:00:00 18,0 15,0 11 6 NW - 10 -
15.06.2019 21:00:00 19,0 17,0 11 6 ENE - 10 -
15.06.2019 20:00:00 19,6 18,3 29 16 NNW 1012,8 8 -
15.06.2019 19:00:00 26,0 18,0 5 3 E - 10 -
15.06.2019 18:00:00 27,0 17,0 9 5 E - 10 -
15.06.2019 17:00:00 26,4 15,9 9 5 ENE 1013,9 10 0,0
15.06.2019 16:00:00 27,0 16,0 4 2 - - 10 -
15.06.2019 15:00:00 26,0 17,0 8 4 - - 10 -
15.06.2019 14:00:00 25,3 16,6 9 5 E 1015,5 10 -
15.06.2019 13:00:00 26,0 16,0 9 5 - - 10 -
15.06.2019 12:00:00 25,0 16,0 5 3 - - 10 -
15.06.2019 11:00:00 24,3 16,1 8 4 ESE 1016,2 10 0,0
15.06.2019 10:00:00 23,0 15,0 5 3 SSW - 10 -
15.06.2019 09:00:00 22,0 16,0 4 2 S - 10 -
15.06.2019 08:00:00 20,8 15,7 2 1 - 1015,6 10 -
15.06.2019 07:00:00 20,0 15,0 5 3 WNW - 10 -
15.06.2019 06:00:00 19,0 15,0 8 4 W - 10 -
15.06.2019 05:00:00 19,0 15,2 8 4 W 1015,1 10 0,0
15.06.2019 04:00:00 19,0 16,0 5 3 W - 10 -
15.06.2019 03:00:00 18,0 16,0 4 2 E - 10 -
15.06.2019 02:00:00 19,1 16,2 4 2 - 1015,2 10 -
15.06.2019 01:00:00 20,0 16,0 2 1 - - 10 -
15.06.2019 00:00:00 22,0 14,0 9 5 NW - 10 -
14.06.2019 23:00:00 21,7 14,4 13 7 NW 1016,5 10 0,0
14.06.2019 22:00:00 22,0 16,0 11 6 NNW - 10 -
14.06.2019 21:00:00 23,0 15,0 5 3 N - 10 -
14.06.2019 20:00:00 25,4 12,8 5 3 ENE 1016,2 10 -
14.06.2019 19:00:00 27,0 12,0 9 5 NE - 10 -
14.06.2019 18:00:00 27,0 11,0 5 3 E - 10 -
14.06.2019 17:00:00 27,1 11,6 11 6 NNE 1017,2 10 0,0
14.06.2019 16:00:00 28,0 9,0 11 6 NE - 10 -
14.06.2019 15:00:00 27,0 10,0 13 7 NNE - 10 -
14.06.2019 14:00:00 26,5 11,6 11 6 NNE 1018,7 10 -

tt = temperature
td = dewpoint
ff = wind speed
dd = wind direction
ppp = reduced air pressure
vv = visibility
rr = precipitation

Next stations